Tracking 25954 objects as of 14-Aug-2022
HD Live streaming from Space Station
objects crossing your sky now

DMSP 5D-2 F6 DEB

Track DMSP 5D-2 F6 DEB now!
10-day predictions


NORAD ID: 40918
Int'l Code: 1982-118L
Perigee: 547.4 km
Apogee: 669.9 km
Inclination: 98.4 °
Period: 96.7 minutes
Semi major axis: 6979 km
RCS: Unknown
Launch date: December 21, 1982
Source: United States (US)
Launch site: AIR FORCE WESTERN TEST RANGE (AFWTR)

Note: This is SATELLITE DEBRIS
aabbcc
Your satellite tracking list
Your tracking list is empty




NASA's NSSDC Master Catalog

Two Line Element Set (TLE):
1 40918U 82118L   22226.36542897  .00022195  00000-0  22044-2 0  9993
2 40918  98.4127 169.9616 0087711 222.5721 136.8672 14.88858135351113
Source of the keplerian elements: AFSPC